Regional Weather Roundup
Issued by NWS

Home | Current Version | Previous Version | Graphics & Text | Print | Product List | Glossary On
Versions: 1 2 3 4 5 6 7 8 9 10 11 12 13 14 15 16 17 18 19 20 21 22 23 24 25 26 27 28 29 30 31 32 33 34 35 36 37 38 39 40 41 42 43 44 45 46 47 48 49 50
000
ASUS43 KBIS 210120
RWRND

NORTH DAKOTA REGIONAL WEATHER ROUNDUP
NATIONAL WEATHER SERVICE BISMARCK ND
800 PM CDT SUN APR 20 2014

NOTE: "FAIR" INDICATES FEW OR NO CLOUDS BELOW 12,000 FEET WITH NO
SIGNIFICANT WEATHER AND/OR OBSTRUCTIONS TO VISIBILITY.


NDZ001>003-009>011-017-210200-
NORTHWEST NORTH DAKOTA

CITY           SKY/WX    TMP DP  RH WIND       PRES   REMARKS
WILLISTON      CLEAR     61  28  28 W18G28    29.96R
MINOT          PTCLDY    61  29  29 W22G32    29.89R
MINOT AFB      PTCLDY    60  35  39 W14G23    29.88R
$$

NDZ018>021-031>035-040>046-210200-
SOUTHWEST NORTH DAKOTA

CITY           SKY/WX    TMP DP  RH WIND       PRES   REMARKS
BISMARCK       PTCLDY    66  27  23 NW13G26   29.93R
DICKINSON      CLEAR     61  21  21 NW21      29.98R
GARRISON         N/A     62  28  27 NW17G31   29.92R
HETTINGER ARPT CLEAR     62  22  21 NW16      30.01R
$$

NDZ004>008-012>016-024-026-027-054-210200-
NORTHEAST NORTH DAKOTA

CITY           SKY/WX    TMP DP  RH WIND       PRES   REMARKS
GRAND FORKS    CLOUDY    66  43  43 SE9       29.82F
GRND FRKS AFB  CLOUDY    65  42  42 S12       29.82F
DEVILS LAKE    CLOUDY    57  34  41 NW17      29.87R
$$

NDZ022-023-025-028>030-036>039-047>053-210200-
SOUTHEAST NORTH DAKOTA

CITY           SKY/WX    TMP DP  RH WIND       PRES   REMARKS
FARGO          CLOUDY    70  35  27 SE10      29.87F
JAMESTOWN      MOCLDY    68  33  27 S9        29.84F
$$




USA.gov is the U.S. government's official web portal to all federal, state and local government web resources and services.